�������ċp�F�����K�X���j�^�v���󋵏��
Date,Time,�ċp�F�����K�X���j�^(cps),����,����(m/s)
2022/02/25,00:00,1.6,�k��,1.7
2022/02/25,00:10,1.6,���k��,2.0
2022/02/25,00:20,1.6,��,1.2
2022/02/25,00:30,1.5,�k��,0.8
2022/02/25,00:40,1.5,-,CALM
2022/02/25,00:50,1.5,��,1.5
2022/02/25,01:00,1.5,���쐼,1.7
2022/02/25,01:10,1.5,���k��,4.3
2022/02/25,01:20,1.5,��,5.3
2022/02/25,01:30,1.4,���쐼,5.5
2022/02/25,01:40,1.5,���쐼,5.7
2022/02/25,01:50,1.5,�쐼,6.0
2022/02/25,02:00,1.5,�쐼,6.9
2022/02/25,02:10,1.5,���쐼,6.6
2022/02/25,02:20,1.5,�쐼,5.3
2022/02/25,02:30,1.5,���쐼,4.2
2022/02/25,02:40,1.5,��쐼,4.8
2022/02/25,02:50,1.5,�쐼,4.6
2022/02/25,03:00,1.5,�쐼,3.9
2022/02/25,03:10,1.5,��쐼,3.6
2022/02/25,03:20,1.5,��쐼,3.5
2022/02/25,03:30,1.6,�쐼,4.2
2022/02/25,03:40,1.5,���쐼,5.0
2022/02/25,03:50,1.5,���쐼,4.0
2022/02/25,04:00,1.5,���쐼,4.3
2022/02/25,04:10,1.5,���쐼,4.9
2022/02/25,04:20,1.4,��,4.9
2022/02/25,04:30,1.5,���쐼,3.0
2022/02/25,04:40,1.6,�쐼,3.8
2022/02/25,04:50,1.5,���쐼,4.4
2022/02/25,05:00,1.6,���쐼,3.7
2022/02/25,05:10,1.5,���쐼,4.4
2022/02/25,05:20,1.5,���쐼,5.4
2022/02/25,05:30,1.4,��,3.6
2022/02/25,05:40,1.4,���쐼,3.7
2022/02/25,05:50,1.5,���쐼,3.4
2022/02/25,06:00,1.5,��,4.4
2022/02/25,06:10,1.6,��,5.0
2022/02/25,06:20,1.5,���쐼,5.9
2022/02/25,06:30,1.5,��,6.6
2022/02/25,06:40,1.6,��,6.5
2022/02/25,06:50,1.6,��,5.7
2022/02/25,07:00,1.5,��,5.9
2022/02/25,07:10,1.5,���쐼,6.2
2022/02/25,07:20,1.5,���쐼,4.3
2022/02/25,07:30,1.6,��,5.1
2022/02/25,07:40,1.5,��,5.7
2022/02/25,07:50,1.6,���쐼,6.0
2022/02/25,08:00,1.4,���쐼,4.5
2022/02/25,08:10,1.6,���쐼,5.6
2022/02/25,08:20,1.5,���쐼,4.7
2022/02/25,08:30,1.5,��,5.0
2022/02/25,08:40,1.5,���쐼,8.0
2022/02/25,08:50,1.5,��,6.0
2022/02/25,09:00,1.5,��,7.5
2022/02/25,09:10,1.5,���k��,6.5
2022/02/25,09:20,1.5,��,5.8
2022/02/25,09:30,1.5,��,7.6
2022/02/25,09:40,1.5,���k��,9.3
2022/02/25,09:50,1.5,��,9.3
2022/02/25,10:00,1.5,���k��,7.4
2022/02/25,10:10,1.5,��,7.2
2022/02/25,10:20,1.5,��,6.2
2022/02/25,10:30,1.6,��,7.7
2022/02/25,10:40,1.6,��,7.2
2022/02/25,10:50,1.5,��,7.4
2022/02/25,11:00,1.6,��,8.6
2022/02/25,11:10,1.6,���k��,10.9
2022/02/25,11:20,1.5,��,9.5
2022/02/25,11:30,1.5,���k��,10.5
2022/02/25,11:40,1.4,��,8.4
2022/02/25,11:50,1.5,��,8.4
2022/02/25,12:00,1.4,���쐼,8.5
2022/02/25,12:10,1.6,��,9.5
2022/02/25,12:20,1.4,��,8.2
2022/02/25,12:30,1.6,��,9.3
2022/02/25,12:40,1.6,��,10.7
2022/02/25,12:50,1.5,��,9.8
2022/02/25,13:00,1.5,��,8.8
2022/02/25,13:10,1.5,��,10.0
2022/02/25,13:20,1.4,��,9.5
2022/02/25,13:30,1.5,��,10.8
2022/02/25,13:40,1.5,��,10.7
2022/02/25,13:50,1.5,��,10.2
2022/02/25,14:00,1.4,��,8.7
2022/02/25,14:10,1.5,��,8.6
2022/02/25,14:20,1.5,��,8.7
2022/02/25,14:30,1.4,��,9.2
2022/02/25,14:40,1.5,��,9.1
2022/02/25,14:50,1.5,��,10.5
2022/02/25,15:00,1.6,��,9.3
2022/02/25,15:10,1.5,��,9.2
2022/02/25,15:20,1.4,��,8.5
2022/02/25,15:30,1.5,��,11.8
2022/02/25,15:40,1.5,��,10.2
2022/02/25,15:50,1.5,��,10.2
2022/02/25,16:00,1.6,��,11.0
2022/02/25,16:10,1.5,��,10.5
2022/02/25,16:20,1.5,��,10.0
2022/02/25,16:30,1.5,��,7.1
2022/02/25,16:40,1.6,��,6.1
2022/02/25,16:50,1.5,��,8.0
2022/02/25,17:00,1.5,��,6.9
2022/02/25,17:10,1.5,��,5.4
2022/02/25,17:20,1.5,��,5.4
2022/02/25,17:30,1.5,��,5.4
2022/02/25,17:40,1.5,��,6.5
2022/02/25,17:50,1.4,���k��,6.7
2022/02/25,18:00,1.5,���k��,5.4
2022/02/25,18:10,1.5,���k��,6.0
2022/02/25,18:20,1.5,���k��,4.0
2022/02/25,18:30,1.5,���k��,4.3
2022/02/25,18:40,1.5,���k��,5.5
2022/02/25,18:50,1.4,���k��,4.8
2022/02/25,19:00,1.5,���k��,5.1
2022/02/25,19:10,1.5,���k��,5.3
2022/02/25,19:20,1.5,���k��,4.8
2022/02/25,19:30,1.4,��,4.6
2022/02/25,19:40,1.5,���k��,5.1
2022/02/25,19:50,1.5,���k��,4.0
2022/02/25,20:00,1.6,��,3.9
2022/02/25,20:10,1.5,��,3.1
2022/02/25,20:20,1.4,���쐼,2.5
2022/02/25,20:30,1.5,��,2.8
2022/02/25,20:40,1.5,��,2.8
2022/02/25,20:50,1.4,��,3.6
2022/02/25,21:00,1.5,��,2.3
2022/02/25,21:10,1.5,���k��,1.5
2022/02/25,21:20,1.6,�k��,2.6
2022/02/25,21:30,1.5,���k��,3.7
2022/02/25,21:40,1.5,���k��,5.8
2022/02/25,21:50,1.5,�k��,5.8
2022/02/25,22:00,1.5,�k��,5.6
2022/02/25,22:10,1.4,�k��,6.5
2022/02/25,22:20,1.5,�k��,6.9
2022/02/25,22:30,1.5,�k��,5.8
2022/02/25,22:40,1.4,�k��,5.6
2022/02/25,22:50,1.5,�k��,3.9
2022/02/25,23:00,1.4,�k��,4.5
2022/02/25,23:10,1.5,�k,3.4
2022/02/25,23:20,1.4,�k�k��,2.3
2022/02/25,23:30,1.5,�쐼,1.7
2022/02/25,23:40,1.6,�k��,1.1
2022/02/25,23:50,1.4,�k,1.5
